[[{"header":{"parameterUnit":"m.s-1","parameterCategory":1,"la1":30.2992,"la2":30.254,"lo1":-89.0895,"lo2":-89.0443,"dy":0.0025,"dx":0.0025,"nx":19,"ny":19,"refTime":"2026-05-04T21:00:00:Z","depth":0,"parameterNumber":2,"parameterNumberName":"U-component_of_WINDS"},"data":[0,0,0,-0.1679,-0.1681,-0.1775,-0.1776,-0.1887,-0.1888,0,0,0,0,0,0,0,0,0,0,0,-0.1643,-0.1643,-0.1679,-0.1681,-0.1775,-0.1776,-0.1887,-0.1888,0,0,0,0,0,0,0,0,0,0,0,-0.1642,-0.1643,-0.1643,-0.1682,-0.1775,-0.1776,-0.1886,-0.1819,0,0,0,0,0,0,0,0,0,0,-0.173,-0.1687,-0.1643,-0.1643,-0.1682,-0.1775,-0.1776,-0.1816,-0.1823,-0.1839,0,-0.1848,0,-0.1869,-0.1894,-0.1894,0,0,0,-0.1688,-0.1681,-0.1714,-0.1644,-0.1683,-0.1775,-0.1735,-0.182,-0.1829,-0.1848,-0.185,-0.1854,-0.1871,-0.1895,-0.1895,-0.1956,-0.1956,0,0,-0.1683,-0.1655,-0.1708,-0.1718,-0.17,-0.1732,-0.1738,-0.1826,-0.1826,-0.185,-0.1857,-0.1873,-0.1895,-0.1896,-0.1956,-0.1956,0,0,0,-0.1663,-0.1651,-0.1683,-0.1713,-0.1731,-0.1734,-0.1741,-0.1822,-0.1835,-0.1858,-0.1874,-0.1896,-0.1897,-0.1956,-0.1956,-0.1927,0,0,0,-0.1661,-0.164,-0.168,-0.1664,-0.1729,-0.1777,-0.1736,-0.1828,-0.1839,-0.1874,-0.1896,-0.1898,-0.1956,-0.1956,-0.1928,-0.1918,0,0,0,-0.164,-0.1638,-0.1648,-0.1662,-0.1702,-0.1776,-0.1794,-0.1831,-0.1849,-0.1895,-0.1898,-0.1956,-0.1956,-0.1928,-0.1919,-0.1926,0,0,0,-0.161,-0.1621,-0.1647,-0.1666,-0.1701,-0.1756,-0.1794,-0.1837,-0.1873,-0.1896,-0.1956,-0.1956,-0.1929,-0.192,-0.1927,-0.1927,-0.1924,0,0,-0.1608,-0.1619,-0.1633,-0.1659,-0.1703,-0.1744,-0.1785,-0.1845,-0.1876,-0.1928,-0.193,-0.1927,-0.1919,-0.1926,-0.1918,-0.1916,0,0,0,-0.1623,-0.1633,-0.165,-0.1682,-0.1727,-0.1766,-0.1822,-0.1845,-0.1891,-0.1896,-0.1932,-0.1928,-0.1934,-0.1935,-0.1933,-0.1941,-0.1955,-0.1955,-0.1955,-0.1582,-0.162,-0.1645,-0.1695,-0.1726,-0.1784,-0.1813,-0.1854,-0.1884,-0.1892,-0.1908,-0.1898,-0.1899,-0.1897,-0.1904,-0.1911,-0.1911,-0.1911,-0.191,-0.1584,-0.1604,-0.1643,-0.1682,-0.1723,-0.1757,-0.1815,-0.1835,-0.1874,-0.1889,-0.1896,-0.1908,-0.1893,-0.1902,-0.1909,-0.1909,-0.1909,-0.1909,-0.191,-0.1562,-0.1578,-0.1605,-0.1656,-0.1692,-0.1743,-0.1778,-0.1815,-0.185,-0.1856,-0.1878,-0.1879,-0.1885,-0.1864,-0.1864,-0.1864,-0.1864,-0.1864,-0.1864,-0.1529,-0.1559,-0.1584,-0.1633,-0.1659,-0.1699,-0.1759,-0.1787,-0.1827,-0.1851,-0.1852,-0.1881,-0.1884,-0.1885,-0.1863,-0.1863,-0.1863,-0.1863,-0.1863,-0.1518,-0.1526,-0.1564,-0.159,-0.1652,-0.1687,-0.1733,-0.1786,-0.1815,-0.1832,-0.1861,-0.1857,-0.1872,-0.1873,-0.1874,-0.1852,-0.1852,-0.1852,-0.1852,-0.15,-0.151,-0.1558,-0.1597,-0.1641,-0.1686,-0.1731,-0.1779,-0.183,-0.1851,-0.186,-0.1863,-0.1864,-0.1879,-0.188,-0.1882,-0.1861,-0.1861,-0.1862,-0.1496,-0.1513,-0.1542,-0.159,-0.1642,-0.1687,-0.173,-0.1777,-0.1837,-0.1863,-0.1868,-0.1868,-0.1875,-0.1874,-0.19,-0.1902,-0.1905,0,0]},{"header":{"parameterUnit":"m.s-1","parameterCategory":1,"la1":30.2992,"la2":30.254,"lo1":-89.0895,"lo2":-89.0443,"dy":0.0025,"dx":0.0025,"nx":19,"ny":19,"refTime":"2026-05-04T21:00:00:Z","depth":0,"parameterNumber":3,"parameterNumberName":"V-component_of_WINDS"},"data":[0,0,0,5.5466,5.5468,5.5559,5.5559,5.5688,5.5689,0,0,0,0,0,0,0,0,0,0,0,5.545,5.5451,5.5465,5.5468,5.5559,5.5559,5.5687,5.5689,0,0,0,0,0,0,0,0,0,0,0,5.5449,5.545,5.5452,5.5468,5.5559,5.5559,5.5687,5.5613,0,0,0,0,0,0,0,0,0,0,5.5523,5.552,5.545,5.5452,5.5469,5.5559,5.5559,5.561,5.5618,5.5653,0,5.569,0,5.5692,5.5699,5.5699,0,0,0,5.5459,5.5513,5.5527,5.5452,5.547,5.5559,5.5515,5.5614,5.5624,5.5664,5.5691,5.5696,5.5694,5.57,5.57,5.5934,5.5935,0,0,5.5454,5.5471,5.5521,5.5534,5.5525,5.5512,5.5518,5.562,5.5649,5.5692,5.5698,5.5696,5.5701,5.5702,5.5932,5.5934,0,0,0,5.5446,5.5468,5.548,5.5529,5.5545,5.5515,5.5522,5.5645,5.5647,5.57,5.5697,5.5701,5.5703,5.5931,5.5933,5.6021,0,0,0,5.5442,5.5463,5.5478,5.549,5.5543,5.5597,5.5545,5.564,5.5651,5.5697,5.5701,5.5705,5.5929,5.5932,5.6015,5.606,0,0,0,5.544,5.5463,5.548,5.5491,5.5531,5.5595,5.5603,5.5642,5.565,5.5699,5.5705,5.5928,5.5931,5.601,5.6051,5.6122,0,0,0,5.5442,5.556,5.5482,5.5612,5.553,5.5651,5.5602,5.5691,5.5744,5.5702,5.5929,5.5933,5.6008,5.6045,5.6117,5.6184,5.6214,0,0,5.56,5.558,5.5654,5.5587,5.5726,5.5635,5.5786,5.5818,5.5807,5.5891,5.5896,5.6017,5.605,5.6121,5.6386,5.641,0,0,0,5.571,5.5764,5.5797,5.5848,5.5875,5.59,5.5908,5.5918,5.5989,5.5855,5.6064,5.6083,5.6124,5.6155,5.6176,5.6207,5.5949,5.5949,5.5948,5.5958,5.5936,5.6056,5.6045,5.6095,5.6099,5.6136,5.615,5.6116,5.6166,5.6189,5.6353,5.639,5.6405,5.6438,5.6226,5.6226,5.6227,5.6227,5.6184,5.6254,5.6202,5.63,5.6275,5.6356,5.6363,5.6335,5.6404,5.6334,5.6369,5.629,5.6432,5.646,5.6233,5.6232,5.6232,5.6231,5.623,5.634,5.6369,5.6381,5.6449,5.6503,5.6487,5.6554,5.6531,5.6508,5.6543,5.6562,5.6561,5.6552,5.6555,5.6555,5.6556,5.6556,5.6557,5.6557,5.6497,5.6507,5.6568,5.6603,5.663,5.6662,5.6665,5.669,5.6711,5.6687,5.6687,5.6644,5.6452,5.6402,5.6566,5.6564,5.6563,5.6562,5.6561,5.6728,5.6671,5.6765,5.6792,5.6828,5.6881,5.6849,5.6901,5.6918,5.6951,5.69,5.6764,5.674,5.6724,5.6681,5.6908,5.6908,5.6908,5.6908,5.6857,5.6843,5.6931,5.6974,5.7013,5.6993,5.7094,5.7096,5.7089,5.7097,5.7061,5.7005,5.6989,5.6975,5.6953,5.6913,5.7193,5.7193,5.7193,5.6995,5.6983,5.7076,5.7068,5.7094,5.7116,5.7209,5.7258,5.7239,5.7204,5.7101,5.7089,5.6998,5.697,5.6931,5.6898,5.6824,0,0]}]]